Location: Buckland
(65.9785°N, 161.1281°W)
Time: 23:13:08
(UTC+00:00)

Transit 4A - Pass Details

Date: 04 December 2020
Orbit: 864 x 980 km, 66.8° (Epoch: 20 January)

Event Time Altitude Azimuth Distance (km) Brightness Sun altitude
Rises 22:32:50 0° 280° (W) 3,690 10.9 1.6°
Reaches altitude 10° 22:35:25 10° 281° (W) 2,743 10.3 1.6°
Maximum altitude 22:41:53 87° 10° (N) 989 8.2 1.6°
Drops below altitude 10° 22:48:16 10° 102° (ESE) 2,709 10.5 1.6°
Sets 22:50:48 0° 103° (ESE) 3,642 11.1 1.6°
